• Em Portugal
  • Lista de países
  • Para 7 dias
  • Temperatura da água
  • Mapas de satélite
  • Mapa do tempo
  • Widgets de tempo
  • user-avatar
    Iniciar Sessão

    Previsão horária em Dipayal

    Hoje, 20 Fevereiro, Terça-feira

    Tempo Temperatura Precipitação Vento Pressão Humidade
    00:00 +16°C° 0 mm 2 m/s 704 mmHg 53%
    01:00 +16°C° 0 mm 2 m/s 704 mmHg 52%
    02:00 +16°C° 0 mm 2 m/s 704 mmHg 50%
    03:00 +15°C° 0 mm 2 m/s 704 mmHg 49%
    04:00 +15°C° 0 mm 2 m/s 704 mmHg 47%
    05:00 +16°C° 0 mm 2 m/s 703 mmHg 41%
    06:00 +18°C° 0 mm 1 m/s 703 mmHg 39%
    07:00 +20°C° 0 mm 1 m/s 704 mmHg 36%
    08:00 +20°C° 0 mm 0 m/s 704 mmHg 34%
    09:00 +24°C° 0 mm 1 m/s 704 mmHg 31%
    10:00 +25°C° 0 mm 1 m/s 705 mmHg 29%
    11:00 +28°C° 0 mm 2 m/s 704 mmHg 24%
    12:00 +28°C° 0 mm 2 m/s 704 mmHg 26%
    13:00 +28°C° 0 mm 2 m/s 704 mmHg 28%
    14:00 +28°C° 0 mm 3 m/s 703 mmHg 30%
    15:00 +26°C° 0 mm 2 m/s 703 mmHg 37%
    16:00 +24°C° 0 mm 2 m/s 703 mmHg 44%
    17:00 +22°C° 0 mm 1 m/s 703 mmHg 53%
    18:00 +20°C° 0 mm 1 m/s 703 mmHg 58%
    19:00 +19°C° 0 mm 1 m/s 703 mmHg 62%
    20:00 +18°C° 0 mm 1 m/s 704 mmHg 66%
    21:00 +16°C° 0 mm 1 m/s 704 mmHg 66%
    22:00 +16°C° 0 mm 1 m/s 704 mmHg 65%
    23:00 +16°C° 0 mm 2 m/s 704 mmHg 64%

    Amanhã, 21 Fevereiro, Quarta-feira

    Tempo Temperatura Precipitação Vento Pressão Humidade
    00:00 +16°C° 0 mm 2 m/s 704 mmHg 62%
    01:00 +15°C° 0 mm 2 m/s 703 mmHg 60%
    02:00 +15°C° 0 mm 2 m/s 703 mmHg 58%
    03:00 +15°C° 0 mm 2 m/s 703 mmHg 55%
    04:00 +15°C° 0 mm 2 m/s 703 mmHg 52%
    05:00 +15°C° 0 mm 2 m/s 702 mmHg 49%
    06:00 +18°C° 0 mm 1 m/s 703 mmHg 45%
    07:00 +19°C° 0 mm 1 m/s 703 mmHg 40%
    08:00 +21°C° 0 mm 1 m/s 703 mmHg 35%
    09:00 +23°C° 0 mm 1 m/s 703 mmHg 32%
    10:00 +25°C° 0 mm 1 m/s 703 mmHg 29%
    11:00 +27°C° 0 mm 2 m/s 703 mmHg 27%
    12:00 +27°C° 0 mm 2 m/s 703 mmHg 28%
    13:00 +27°C° 0 mm 2 m/s 702 mmHg 28%
    14:00 +28°C° 0 mm 2 m/s 701 mmHg 29%
    15:00 +26°C° 0 mm 2 m/s 701 mmHg 36%
    16:00 +24°C° 0 mm 2 m/s 701 mmHg 42%
    17:00 +23°C° 0 mm 1 m/s 701 mmHg 49%
    18:00 +21°C° 0,1 mm 1 m/s 701 mmHg 55%
    19:00 +19°C° 0,1 mm 1 m/s 702 mmHg 60%
    20:00 +18°C° 0,1 mm 1 m/s 702 mmHg 66%
    21:00 +16°C° 0 mm 2 m/s 702 mmHg 64%
    22:00 +16°C° 0 mm 2 m/s 702 mmHg 62%
    23:00 +16°C° 0 mm 2 m/s 702 mmHg 60%

    Depois de amanhã, 22 Fevereiro, Quinta-feira

    Tempo Temperatura Precipitação Vento Pressão Humidade
    00:00 +16°C° 0 mm 2 m/s 702 mmHg 57%
    01:00 +15°C° 0 mm 2 m/s 702 mmHg 54%
    02:00 +15°C° 0 mm 2 m/s 701 mmHg 51%
    03:00 +15°C° 0 mm 2 m/s 701 mmHg 48%
    04:00 +15°C° 0 mm 2 m/s 701 mmHg 46%
    05:00 +14°C° 0 mm 2 m/s 701 mmHg 43%
    06:00 +16°C° 0 mm 2 m/s 702 mmHg 39%
    07:00 +18°C° 0 mm 2 m/s 702 mmHg 35%
    08:00 +21°C° 0 mm 1 m/s 703 mmHg 32%
    09:00 +23°C° 0 mm 1 m/s 703 mmHg 28%
    10:00 +25°C° 0 mm 1 m/s 703 mmHg 25%
    11:00 +28°C° 0 mm 1 m/s 703 mmHg 21%
    12:00 +28°C° 0 mm 2 m/s 702 mmHg 22%
    13:00 +27°C° 0 mm 2 m/s 701 mmHg 23%
    14:00 +27°C° 0 mm 3 m/s 701 mmHg 24%
    15:00 +26°C° 0 mm 2 m/s 701 mmHg 29%
    16:00 +24°C° 0 mm 2 m/s 701 mmHg 35%
    17:00 +23°C° 0 mm 1 m/s 701 mmHg 41%
    18:00 +21°C° 0 mm 1 m/s 701 mmHg 44%
    19:00 +20°C° 0 mm 1 m/s 702 mmHg 46%
    20:00 +17°C° 0 mm 2 m/s 703 mmHg 48%
    21:00 +17°C° 0 mm 2 m/s 703 mmHg 46%
    22:00 +16°C° 0 mm 2 m/s 703 mmHg 44%
    23:00 +16°C° 0 mm 2 m/s 703 mmHg 42%

    23 Fevereiro, Sexta-feira

    Tempo Temperatura Precipitação Vento Pressão Humidade
    00:00 +16°C° 0 mm 2 m/s 703 mmHg 39%
    01:00 +15°C° 0 mm 2 m/s 703 mmHg 36%
    02:00 +15°C° 0 mm 2 m/s 703 mmHg 32%
    03:00 +15°C° 0 mm 2 m/s 703 mmHg 31%
    04:00 +15°C° 0 mm 2 m/s 703 mmHg 30%
    05:00 +14°C° 0 mm 2 m/s 703 mmHg 28%
    06:00 +16°C° 0 mm 2 m/s 703 mmHg 27%
    07:00 +18°C° 0 mm 2 m/s 704 mmHg 26%
    08:00 +20°C° 0 mm 2 m/s 704 mmHg 25%
    09:00 +24°C° 0 mm 1 m/s 704 mmHg 22%
    10:00 +26°C° 0 mm 1 m/s 704 mmHg 19%
    11:00 +29°C° 0 mm 1 m/s 704 mmHg 16%
    12:00 +29°C° 0 mm 2 m/s 704 mmHg 17%
    13:00 +29°C° 0 mm 2 m/s 703 mmHg 17%
    14:00 +29°C° 0 mm 3 m/s 702 mmHg 18%
    15:00 +27°C° 0 mm 2 m/s 702 mmHg 23%
    16:00 +25°C° 0 mm 2 m/s 702 mmHg 28%
    17:00 +23°C° 0 mm 1 m/s 702 mmHg 33%
    18:00 +22°C° 0 mm 1 m/s 703 mmHg 35%
    19:00 +19°C° 0 mm 2 m/s 704 mmHg 37%
    20:00 +17°C° 0 mm 2 m/s 704 mmHg 39%
    21:00 +17°C° 0 mm 2 m/s 705 mmHg 38%
    22:00 +17°C° 0 mm 2 m/s 705 mmHg 37%
    23:00 +16°C° 0 mm 2 m/s 705 mmHg 36%

    24 Fevereiro, Sábado

    Tempo Temperatura Precipitação Vento Pressão Humidade
    00:00 +16°C° 0 mm 2 m/s 705 mmHg 34%
    01:00 +16°C° 0 mm 2 m/s 704 mmHg 32%
    02:00 +16°C° 0 mm 2 m/s 704 mmHg 30%
    03:00 +16°C° 0 mm 2 m/s 704 mmHg 29%
    04:00 +16°C° 0 mm 2 m/s 704 mmHg 27%
    05:00 +16°C° 0 mm 2 m/s 704 mmHg 26%
    06:00 +18°C° 0 mm 2 m/s 705 mmHg 25%
    07:00 +20°C° 0 mm 2 m/s 706 mmHg 24%
    08:00 +21°C° 0 mm 2 m/s 706 mmHg 23%
    09:00 +25°C° 0 mm 2 m/s 707 mmHg 21%
    10:00 +27°C° 0 mm 1 m/s 707 mmHg 19%
    11:00 +30°C° 0 mm 1 m/s 707 mmHg 18%
    12:00 +29°C° 0 mm 2 m/s 706 mmHg 19%
    13:00 +29°C° 0 mm 2 m/s 706 mmHg 21%
    14:00 +29°C° 0 mm 2 m/s 705 mmHg 22%
    15:00 +27°C° 0 mm 2 m/s 705 mmHg 28%
    16:00 +26°C° 0 mm 1 m/s 705 mmHg 33%
    17:00 +24°C° 0 mm 1 m/s 705 mmHg 38%
    18:00 +23°C° 0 mm 1 m/s 705 mmHg 40%
    19:00 +22°C° 0 mm 1 m/s 706 mmHg 42%
    20:00 +20°C° 0 mm 2 m/s 707 mmHg 43%
    21:00 +19°C° 0,1 mm 2 m/s 707 mmHg 45%
    22:00 +19°C° 0,1 mm 2 m/s 706 mmHg 47%
    23:00 +18°C° 0,1 mm 2 m/s 706 mmHg 49%

    25 Fevereiro, Domingo

    Tempo Temperatura Precipitação Vento Pressão Humidade
    00:00 +18°C° 0 mm 2 m/s 706 mmHg 49%
    01:00 +17°C° 0 mm 2 m/s 706 mmHg 49%
    02:00 +17°C° 0 mm 2 m/s 705 mmHg 48%
    03:00 +17°C° 0 mm 2 m/s 705 mmHg 47%
    04:00 +16°C° 0 mm 2 m/s 705 mmHg 47%
    05:00 +16°C° 0 mm 2 m/s 705 mmHg 46%
    06:00 +18°C° 0 mm 2 m/s 706 mmHg 42%
    07:00 +20°C° 0 mm 2 m/s 707 mmHg 38%
    08:00 +23°C° 0 mm 2 m/s 707 mmHg 35%
    09:00 +25°C° 0 mm 1 m/s 707 mmHg 30%
    10:00 +28°C° 0 mm 1 m/s 707 mmHg 26%
    11:00 +30°C° 0 mm 1 m/s 707 mmHg 22%
    12:00 +30°C° 0 mm 2 m/s 706 mmHg 22%
    13:00 +30°C° 0 mm 2 m/s 706 mmHg 22%
    14:00 +30°C° 0 mm 3 m/s 705 mmHg 22%
    15:00 +29°C° 0 mm 2 m/s 705 mmHg 26%
    16:00 +27°C° 0 mm 2 m/s 704 mmHg 31%
    17:00 +26°C° 0 mm 1 m/s 704 mmHg 36%
    18:00 +24°C° 0 mm 1 m/s 705 mmHg 37%
    19:00 +21°C° 0 mm 2 m/s 705 mmHg 38%
    20:00 +19°C° 0 mm 2 m/s 706 mmHg 40%
    21:00 +19°C° 0 mm 2 m/s 705 mmHg 38%
    22:00 +18°C° 0 mm 2 m/s 705 mmHg 37%
    23:00 +18°C° 0 mm 2 m/s 705 mmHg 36%
    Mostrar mais